Wind_Speed
18 18 18 18 18 18 19 19 19 19 20 20 20 20 21 21 21 22 22 23 23 23 23 23 22 23 24 23 24 25 24 24 24 25 25 25 25 25
19 19 19 20 20 20 21 21 21 22 22 21 21 21 21 21 21 22 23 23 23 23 24 24 24 24 24 24 25 25 25 25 25 25 26 26 27 27
21 21 21 22 22 22 22 22 23 23 23 22 22 22 23 23 23 24 24 24 25 25 25 26 26 26 26 26 26 26 26 27 27 27 28 28 28 29
23 23 23 23 24 24 24 24 24 24 24 23 24 24 24 25 24 25 25 26 26 26 26 26 27 26 27 27 27 27 28 28 29 29 29 29 29 30
25 24 24 25 25 26 26 26 26 25 25 25 25 26 26 26 26 27 27 27 27 27 27 28 28 28 28 29 29 30 30 30 30 30 30 30 30 30
26 26 26 26 26 26 26 26 26 26 26 26 26 27 28 28 28 28 29 29 28 28 28 28 28 29 30 30 31 31 31 31 31 32 32 32 32 32
27 28 27 27 26 27 27 26 27 27 27 27 27 28 29 29 29 29 28 28 28 29 30 30 30 30 31 32 31 31 32 32 32 32 33 33 33 33
27 28 28 28 27 27 26 27 27 27 27 27 27 27 28 29 29 29 29 29 29 30 30 30 30 30 31 31 32 33 33 33 33 34 34 34 34 34
29 29 28 28 28 28 28 28 27 27 27 27 27 28 29 29 29 30 31 31 31 31 31 31 31 31 31 31 32 33 33 33 33 34 34 34 34 34
30 30 29 29 29 29 29 28 28 28 29 29 29 29 29 29 30 31 31 32 31 31 32 31 31 31 30 30 31 32 32 32 33 33 33 34 35 36
32 31 31 30 29 29 29 29 29 30 30 30 30 30 30 31 31 31 31 31 31 31 31 31 30 30 30 31 32 32 32 32 33 33 33 34 35 36
33 32 32 31 30 29 29 29 30 30 30 31 30 30 30 30 31 31 31 31 30 30 29 30 30 30 30 30 31 32 32 32 33 34 33 34 34 35
33 33 32 30 30 30 30 30 30 31 30 30 30 30 30 30 30 29 29 29 29 29 29 29 30 30 30 29 30 30 31 31 32 32 33 33 33 33
32 31 30 30 30 30 29 30 30 30 29 29 29 29 29 29 28 29 29 29 29 29 29 28 28 29 29 29 29 29 30 30 30 30 31 31 31 31
30 30 29 29 29 28 28 28 28 28 27 27 27 27 27 27 27 28 28 28 28 28 28 29 29 29 30 29 29 28 28 29 29 29 30 30 29 29
29 29 28 28 28 27 26 27 26 26 26 26 25 25 25 25 26 27 27 27 27 27 28 28 28 28 28 28 28 27 28 28 28 28 29 29 29 28
29 27 27 27 27 26 25 25 25 25 25 25 24 24 24 25 26 27 27 28 28 27 28 28 28 29 29 28 28 28 27 27 27 28 29 29 29 29
28 27 26 26 25 25 25 25 25 25 25 24 24 23 24 25 25 25 25 26 26 26 27 27 27 27 27 27 28 28 28 29 29 29 29 29 28 28
27 27 26 25 25 25 24 24 25 25 24 23 23 23 24 24 24 24 25 25 25 25 25 25 26 26 26 27 27 27 27 28 28 28 28 28 27 27
25 25 25 25 25 24 24 24 24 24 24 24 25 25 25 25 25 25 25 25 25 25 25 25 25 25 25 26 26 27 27 26 26 26 26 26 25 25
25 24 24 24 24 24 24 24 24 24 24 25 25 25 25 25 25 25 25 24 25 24 24 24 24 24 24 24 24 25 26 26 25 25 25 25 25 24
25 25 25 25 24 25 25 25 25 25 25 25 25 25 24 23 23 23 22 23 23 24 23 23 23 23 22 23 23 24 24 24 24 24 24 24 23 23
25 25 25 24 24 24 24 24 24 24 23 23 23 23 22 21 21 21 21 22 22 22 22 21 22 21 21 21 22 22 22 23 23 22 22 23 22 22
Wind_Direction
297 294 292 289 285 283 282 280 280 279 278 278 277 276 276 276 277 276 274 272 270 270 270 271 269 267 265 264 264 263 262 262 262 261 259 257 257 257
293 293 291 288 286 284 283 280 279 278 277 277 276 274 274 275 276 275 273 271 270 270 270 270 270 268 266 266 264 262 263 264 263 261 260 259 259 258
290 290 290 289 285 282 281 280 278 278 278 276 274 274 274 275 274 275 274 273 271 270 268 267 268 268 267 266 266 263 263 264 263 262 262 260 259 258
290 288 288 287 287 284 281 279 277 276 275 275 274 273 272 272 273 275 274 273 271 269 268 267 267 268 266 266 265 265 265 264 263 263 262 261 260 259
290 286 285 285 286 287 283 280 278 276 274 274 273 272 271 270 272 273 273 272 271 270 269 268 267 268 268 267 265 265 264 264 263 262 262 261 260 258
289 287 286 286 286 286 284 281 279 278 275 274 273 272 272 271 272 273 273 273 272 271 270 269 268 267 267 267 266 265 264 263 263 262 262 261 260 259
291 289 289 287 286 285 283 282 280 278 278 276 275 275 274 273 272 273 275 274 273 272 271 270 269 269 268 266 266 266 265 264 264 263 262 261 260 259
294 292 290 288 286 284 283 282 281 280 280 279 277 276 276 274 274 275 275 275 274 273 272 272 272 270 269 266 265 266 266 265 264 264 263 262 262 261
294 293 290 289 286 284 282 281 281 281 280 279 278 277 276 274 275 275 274 273 273 272 271 272 273 273 271 268 267 267 267 266 265 264 264 264 263 261
295 293 291 289 287 285 284 283 282 280 280 279 278 277 278 277 276 276 274 273 272 272 272 271 271 271 271 270 269 269 267 267 267 268 267 266 263 262
294 293 291 289 285 284 282 282 282 281 281 281 280 278 278 278 277 275 275 273 272 272 272 271 270 271 271 270 269 269 269 270 271 270 269 267 264 262
293 291 290 288 285 284 283 283 283 283 283 283 281 280 280 279 278 277 276 274 273 273 273 272 271 271 271 270 269 269 270 271 271 270 270 268 264 262
293 291 290 288 284 284 284 284 284 283 282 282 280 279 278 278 278 277 276 275 274 273 273 272 272 273 272 269 269 270 271 271 270 269 269 268 266 263
294 293 290 289 287 285 285 284 284 283 283 281 279 279 278 277 277 277 276 275 275 274 273 272 271 272 273 273 272 270 270 270 270 270 270 269 266 264
294 292 291 290 288 286 285 286 285 284 283 281 280 279 279 277 277 276 276 277 277 275 274 274 273 273 272 273 272 270 269 268 269 269 269 271 268 265
295 293 292 292 290 287 284 283 283 283 282 281 282 280 278 277 276 276 277 276 276 274 275 275 275 275 274 274 272 270 270 269 268 267 267 268 270 270
294 293 292 291 290 288 286 283 282 284 284 281 280 280 280 279 279 278 278 277 277 276 277 276 276 277 276 275 273 271 270 271 270 268 267 268 269 270
293 293 292 291 290 289 286 285 284 285 285 282 279 281 282 282 281 280 280 279 278 278 277 276 276 275 275 273 272 271 271 272 272 271 271 269 269 269
292 292 291 290 290 290 288 286 285 284 283 281 281 282 284 284 283 281 280 279 279 278 277 276 276 275 273 273 273 272 272 272 272 270 270 270 268 267
293 293 291 289 290 290 289 287 285 283 281 281 282 283 284 284 283 282 280 278 278 279 278 277 277 276 275 273 273 272 272 272 271 269 269 269 268 266
296 295 292 290 290 290 289 289 287 284 282 283 283 283 283 283 284 282 280 279 279 279 278 277 277 276 277 276 274 272 273 273 271 269 268 268 266 264
295 294 293 291 291 291 291 291 289 286 283 283 283 283 283 284 284 282 280 280 280 281 280 278 277 277 278 278 276 274 273 273 271 270 269 268 265 263
297 295 295 294 293 293 293 292 292 291 288 286 284 283 283 283 284 281 280 281 282 283 281 279 279 279 279 279 279 277 274 273 272 271 270 268 265 263
Height
5847 5846 5844 5842 5841 5840 5839 5838 5838 5837 5837 5836 5835 5834 5833 5832 5832 5831 5831 5830 5830 5830 5830 5829 5829 5828 5828 5828 5829 5829 5829 5829 5829 5829 5829 5830 5830 5830
5841 5840 5838 5836 5835 5833 5832 5831 5830 5830 5830 5829 5828 5827 5826 5826 5825 5824 5824 5823 5823 5823 5823 5822 5822 5822 5821 5821 5821 5822 5822 5822 5822 5822 5822 5823 5823 5823
5835 5833 5831 5830 5828 5827 5825 5824 5823 5822 5822 5822 5821 5820 5820 5819 5818 5817 5817 5816 5816 5816 5815 5815 5815 5814 5814 5814 5814 5814 5814 5814 5814 5814 5815 5815 5815 5816
5827 5825 5824 5823 5821 5819 5817 5816 5815 5814 5814 5813 5813 5813 5812 5811 5811 5810 5809 5809 5808 5808 5807 5807 5807 5807 5806 5806 5806 5806 5806 5806 5806 5806 5807 5807 5807 5807
5820 5818 5817 5815 5813 5811 5810 5808 5807 5806 5805 5805 5804 5804 5804 5803 5803 5802 5801 5800 5800 5799 5799 5798 5798 5798 5798 5798 5798 5798 5798 5798 5798 5798 5798 5798 5798 5799
5812 5810 5808 5806 5804 5803 5801 5800 5799 5798 5797 5796 5796 5795 5795 5794 5794 5793 5792 5791 5791 5791 5790 5789 5789 5789 5789 5789 5789 5789 5789 5789 5789 5789 5789 5789 5790 5790
5804 5802 5800 5798 5796 5794 5792 5791 5790 5789 5788 5787 5787 5786 5786 5785 5784 5784 5783 5782 5781 5781 5781 5780 5780 5779 5779 5779 5779 5779 5779 5779 5779 5779 5779 5780 5780 5781
5797 5794 5792 5789 5787 5785 5784 5783 5781 5780 5779 5778 5778 5777 5776 5775 5775 5774 5774 5773 5773 5772 5771 5771 5770 5769 5769 5769 5769 5769 5769 5769 5769 5769 5769 5769 5770 5771
5788 5786 5783 5781 5779 5777 5775 5774 5772 5771 5770 5770 5769 5768 5767 5766 5765 5765 5764 5764 5763 5762 5762 5761 5761 5760 5760 5760 5760 5760 5759 5759 5758 5758 5759 5759 5759 5760
5780 5777 5774 5772 5769 5767 5766 5764 5763 5762 5761 5760 5759 5758 5757 5756 5756 5755 5754 5754 5753 5753 5752 5752 5751 5751 5750 5750 5749 5749 5749 5748 5748 5748 5748 5748 5749 5749
5770 5767 5764 5762 5760 5758 5757 5755 5754 5753 5751 5750 5749 5748 5747 5746 5745 5745 5744 5744 5743 5743 5742 5742 5742 5741 5741 5740 5739 5739 5738 5738 5738 5738 5738 5738 5738 5738
5761 5758 5755 5752 5750 5748 5747 5746 5744 5743 5741 5740 5739 5738 5737 5736 5735 5734 5734 5734 5733 5733 5732 5732 5732 5731 5731 5731 5730 5729 5729 5728 5728 5727 5727 5727 5727 5727
5751 5748 5745 5742 5740 5738 5737 5736 5734 5733 5731 5730 5729 5728 5727 5726 5725 5724 5724 5723 5723 5723 5723 5722 5722 5721 5721 5721 5720 5719 5719 5718 5717 5717 5716 5716 5716 5716
5741 5738 5735 5733 5731 5729 5727 5726 5724 5722 5721 5720 5719 5718 5717 5717 5716 5715 5714 5714 5713 5713 5712 5712 5712 5712 5711 5711 5711 5710 5709 5708 5708 5707 5706 5706 5705 5706
5732 5729 5726 5724 5721 5720 5718 5716 5715 5713 5712 5711 5710 5709 5708 5707 5706 5706 5705 5704 5704 5703 5703 5702 5702 5702 5702 5701 5701 5700 5700 5699 5698 5698 5697 5696 5696 5696
5723 5720 5718 5715 5713 5711 5709 5707 5705 5704 5703 5702 5701 5700 5699 5698 5697 5696 5696 5695 5695 5694 5693 5692 5692 5691 5691 5691 5691 5691 5690 5689 5689 5688 5688 5688 5687 5687
5714 5712 5709 5707 5704 5702 5700 5699 5697 5696 5695 5693 5692 5692 5691 5690 5689 5688 5687 5686 5685 5685 5684 5683 5682 5682 5682 5682 5681 5681 5680 5680 5679 5679 5679 5678 5678 5678
5706 5704 5701 5699 5697 5695 5693 5691 5690 5688 5687 5685 5684 5684 5683 5682 5680 5679 5678 5678 5677 5676 5675 5675 5674 5673 5673 5672 5672 5672 5671 5671 5670 5670 5669 5669 5669 5669
5698 5696 5693 5691 5689 5687 5685 5683 5682 5680 5679 5678 5677 5676 5675 5674 5672 5671 5670 5669 5668 5668 5667 5666 5665 5665 5664 5664 5663 5663 5662 5662 5661 5661 5660 5660 5660 5660
5690 5688 5686 5684 5681 5679 5677 5676 5674 5673 5672 5670 5669 5668 5667 5666 5664 5663 5662 5661 5660 5659 5659 5658 5657 5656 5656 5656 5655 5654 5653 5653 5652 5652 5652 5651 5651 5652
5683 5681 5678 5676 5674 5672 5670 5668 5667 5665 5664 5662 5661 5660 5659 5657 5656 5655 5654 5653 5652 5651 5650 5650 5649 5648 5647 5647 5646 5646 5645 5644 5643 5643 5643 5643 5643 5643
5677 5674 5672 5669 5667 5665 5663 5661 5659 5657 5656 5654 5653 5652 5650 5649 5648 5647 5646 5645 5644 5643 5642 5641 5640 5640 5639 5638 5638 5637 5636 5636 5635 5634 5635 5635 5635 5636
5669 5667 5665 5662 5660 5658 5656 5654 5651 5650 5648 5646 5645 5644 5642 5641 5640 5640 5639 5638 5637 5636 5635 5634 5633 5632 5631 5630 5630 5629 5628 5628 5627 5627 5627 5627 5627 5628